Location: Alvediston
(51.0078°N, 2.0364°W)
Time: 14:12:18
(UTC+00:00)

Meteor 1-13 Rocket - Pass Details

Date: 27 February 2020
Orbit: 829 x 913 km, 81.3° (Epoch: 27 March)

Event Time Altitude Azimuth Distance (km) Brightness Sun altitude
Rises 19:32:27 0° 349° (NNW) 3,539 7.7 -17.7°
Reaches altitude 10° 19:34:59 10° 352° (N) 2,584 6.9 -18.1°
Maximum altitude 19:40:50 62° 74° (ENE) 990 4.3 -19.0°
Enters shadow 19:44:42 21° 150° (SSE) 1,865 5.6 -19.6°
